GFSFLT1_sfc_thetae_159.txt.gz
Theta_e
294 292 292 292 292 293 293 293 292 292 293 292 290 291 291 290 290 290 291 291 292 293 295 295 296 296 297 299 301 299 299 299
293 292 290 291 291 290 290 291 289 290 290 288 288 288 288 287 287 288 288 288 289 290 291 292 292 293 294 293 294 294 295 296
292 292 290 289 289 288 288 289 287 288 287 286 286 286 286 285 285 286 286 287 287 288 288 288 288 290 289 289 289 290 290 291
291 291 289 287 287 286 286 287 285 285 285 284 284 284 283 283 284 284 284 284 285 285 285 286 287 286 286 287 287 288 288 289
290 290 289 286 286 285 284 285 283 283 282 281 281 281 281 282 282 282 282 282 283 283 283 284 284 284 284 284 285 286 287 289
289 289 288 285 283 283 283 282 282 281 280 279 280 280 280 280 280 281 281 281 281 281 282 282 282 283 283 284 284 285 285 286
289 288 286 283 282 281 281 280 281 280 279 279 279 279 279 279 279 279 279 280 280 280 280 280 281 283 284 283 283 282 282 282
289 287 284 282 281 280 279 280 279 278 277 277 277 277 277 277 278 277 278 279 279 279 279 279 280 282 282 282 281 281 281 281
289 286 282 280 279 279 279 278 278 276 276 276 276 275 276 276 276 276 277 277 277 278 278 279 279 280 281 281 280 280 279 280
286 281 278 277 277 277 277 276 276 275 275 275 275 274 275 274 274 276 276 276 276 277 277 276 277 279 280 279 278 278 278 278
281 278 276 276 277 276 276 275 274 274 274 274 273 273 274 274 274 275 276 275 276 276 276 276 275 277 279 279 277 276 276 276
277 275 274 275 276 275 274 272 272 272 272 272 272 272 273 273 273 274 274 274 275 275 275 275 275 275 278 278 276 275 274 274
274 273 273 274 275 273 272 271 271 270 270 270 270 271 272 271 272 273 273 273 274 273 274 274 274 275 276 276 276 276 272 272
272 271 271 273 274 271 269 270 268 268 267 268 269 270 270 270 270 272 272 271 271 271 271 271 272 272 275 274 275 274 272 272
270 269 268 270 271 269 268 267 264 266 267 268 268 268 269 270 270 270 269 269 269 269 268 269 270 270 272 272 272 272 270 270
269 268 268 267 266 265 265 264 265 266 266 267 268 267 268 268 268 268 269 269 268 267 268 267 266 269 272 271 270 270 269 266
269 268 266 265 262 261 261 262 264 266 266 265 266 266 266 266 267 268 267 268 268 269 268 268 269 271 271 271 271 270 269 261
266 265 264 262 260 259 259 260 261 264 264 264 264 264 264 264 264 263 265 267 266 267 267 267 268 269 270 269 269 266 265 258
264 262 261 260 258 258 259 259 258 261 260 263 262 262 262 262 262 261 261 260 261 264 265 265 266 268 268 267 263 258 259 257
260 259 259 258 257 257 258 259 260 261 261 261 261 261 259 260 260 260 260 260 259 260 261 261 263 266 265 263 257 256 256 256

GFSFLT1_sfc_thetae_165.txt.gz
Theta_e
289 288 288 288 288 288 287 286 286 285 285 285 285 285 285 285 285 285 286 287 287 287 288 287 287 288 289 288 290 289 290 290
288 287 286 286 286 286 285 285 285 284 284 284 283 283 283 283 283 284 284 285 285 286 286 286 286 287 287 287 288 288 288 289
287 285 285 285 284 285 283 283 283 283 282 282 282 282 281 281 281 282 283 284 284 285 284 284 285 285 285 286 286 286 286 286
286 285 284 283 283 283 282 282 282 282 281 280 280 280 280 280 280 281 281 282 283 283 283 283 284 283 284 285 285 284 284 284
287 285 284 283 282 282 282 281 281 280 280 279 279 279 279 280 280 280 281 281 281 282 283 283 283 282 283 283 283 283 283 283
287 287 284 282 281 281 281 280 280 279 278 278 278 278 278 279 279 279 279 280 280 280 281 282 282 282 280 281 281 280 280 280
289 288 285 283 281 281 279 279 279 278 277 277 278 278 278 278 278 278 278 279 279 278 278 279 281 282 282 280 278 278 278 277
291 289 288 283 282 280 278 279 277 277 277 277 277 277 277 277 277 277 276 277 277 277 277 277 279 282 280 280 278 277 276 276
293 290 288 284 281 279 278 278 277 276 277 277 277 276 276 277 276 276 276 276 276 276 277 276 279 281 279 279 277 276 276 275
294 290 284 281 279 278 277 277 276 276 276 276 276 275 275 275 275 276 276 276 276 276 275 275 276 280 279 276 275 275 274 275
287 280 279 277 278 277 277 276 275 276 276 276 276 275 275 275 275 275 276 276 276 275 275 274 274 278 279 276 275 273 272 273
279 279 278 277 278 276 275 275 276 276 275 275 275 274 274 274 274 274 274 274 273 273 273 273 273 275 277 277 274 273 271 271
276 274 275 277 277 275 274 275 274 273 273 273 273 274 273 273 273 273 273 272 271 270 270 271 272 274 275 275 275 274 269 270
274 274 275 276 276 274 273 273 272 271 271 271 272 272 272 271 271 271 271 270 270 269 267 268 270 270 273 273 273 273 270 271
272 272 272 274 275 273 272 272 271 270 269 270 270 269 271 271 271 270 268 268 268 267 265 266 267 268 270 271 270 271 269 266
272 271 271 271 270 271 270 270 269 269 268 269 269 269 269 269 269 269 269 268 265 264 265 262 263 267 272 271 270 268 269 257
270 270 268 268 267 267 268 269 268 268 268 268 268 268 267 267 268 271 271 272 271 271 268 268 269 270 271 271 271 269 268 251
268 268 265 264 262 263 264 267 267 267 267 267 267 266 266 266 265 264 267 269 269 269 268 268 268 269 270 269 268 265 260 247
265 264 263 261 260 261 262 264 265 266 265 265 265 265 264 264 264 263 261 260 261 264 265 266 266 267 268 267 259 248 250 245
263 262 261 260 259 260 261 262 262 263 263 263 263 263 263 262 262 261 260 260 258 258 260 259 263 265 265 262 248 246 245 245

GFSFLT1_sfc_thetae_168.txt.gz
Theta_e
290 289 288 288 288 287 287 287 285 285 284 284 284 284 284 284 284 284 285 286 286 286 286 286 287 287 288 288 288 288 289 289
289 289 288 287 287 286 285 285 284 284 283 283 282 282 283 282 283 283 284 284 285 285 285 285 285 286 286 286 287 287 286 286
289 287 286 286 285 285 283 284 283 283 282 282 281 281 280 280 281 282 282 283 283 284 284 284 284 284 285 285 285 285 284 284
287 286 285 284 285 284 283 282 282 281 281 280 280 279 279 279 280 281 281 281 282 283 282 282 283 283 284 284 284 283 283 283
288 286 285 284 284 283 281 281 281 280 279 279 279 278 278 279 279 280 280 280 281 282 282 282 282 282 282 282 282 281 282 281
289 287 285 284 283 283 283 281 280 279 278 278 279 278 278 278 279 279 279 279 280 280 280 281 281 281 280 280 280 279 278 279
291 290 287 285 284 282 282 280 280 278 278 277 278 278 278 278 278 279 278 278 279 279 279 279 281 283 282 280 278 278 277 277
293 291 290 287 285 282 282 280 278 278 277 277 278 278 278 278 278 277 277 278 277 277 278 278 279 282 281 280 278 277 276 276
295 294 293 290 285 283 280 279 278 277 277 277 277 277 277 277 277 276 277 276 277 277 277 278 279 280 280 278 277 276 275 275
297 295 292 286 283 280 279 278 278 277 277 277 276 276 276 275 276 276 276 276 276 277 276 277 278 279 278 277 276 274 274 274
291 287 285 282 280 279 278 278 277 277 277 276 276 275 275 275 275 276 277 276 276 275 276 276 277 279 277 276 275 273 273 273
282 282 282 279 279 278 278 277 278 277 276 275 275 275 275 275 275 276 276 276 274 274 274 274 275 277 278 276 275 273 271 271
277 276 275 277 278 277 276 277 276 275 274 273 273 274 274 273 273 275 275 274 273 272 272 272 273 275 276 276 275 274 270 270
274 274 274 275 277 275 274 274 273 272 271 271 273 274 274 272 273 273 273 272 271 271 270 270 270 272 274 274 273 273 270 270
272 271 271 272 275 273 273 273 272 271 271 272 272 272 272 273 273 272 272 271 271 269 269 268 268 269 271 271 271 272 269 266
271 271 271 270 270 270 270 271 271 271 271 271 271 271 271 271 271 271 271 272 269 268 268 266 266 268 272 271 270 268 266 259
269 269 268 268 267 268 270 272 271 269 269 269 269 269 269 269 269 273 272 273 272 271 269 268 270 272 272 272 272 270 266 257
267 266 265 264 265 267 269 270 269 269 268 268 268 268 267 268 267 267 271 274 273 272 272 270 270 270 271 271 269 267 261 254
264 263 264 263 263 264 266 268 268 267 268 267 267 267 267 266 266 266 265 265 265 268 268 269 268 268 270 268 262 256 255 252
264 263 263 262 260 262 264 265 266 266 265 265 265 265 265 265 264 263 263 262 261 260 264 263 265 266 267 264 255 254 252 250

GFSFLT1_sfc_thetae_171.txt.gz
Theta_e
292 291 290 290 289 287 287 287 285 284 284 284 284 284 284 285 285 285 286 286 286 285 286 286 287 287 287 287 288 288 287 286
291 290 289 288 287 286 286 286 284 283 283 283 283 283 283 283 283 283 284 284 284 284 284 284 285 285 286 286 286 285 284 284
291 289 287 287 286 286 285 285 284 283 283 282 282 281 281 281 281 282 282 283 283 283 283 283 284 284 284 284 284 283 282 282
290 288 287 287 286 286 285 284 284 282 282 281 280 280 279 279 280 281 281 281 282 282 282 282 282 283 283 283 283 282 281 281
289 289 289 287 286 285 285 283 283 281 281 280 279 279 279 279 280 280 280 280 281 281 281 281 281 282 282 282 281 281 280 280
291 290 289 287 285 285 284 283 282 280 279 279 279 278 278 279 279 279 280 280 280 280 280 280 281 281 280 280 279 279 278 278
292 292 291 288 286 285 284 283 281 280 279 278 279 278 278 278 279 279 279 279 279 279 280 279 281 284 283 280 278 278 278 276
295 295 294 292 289 286 284 283 281 280 279 278 278 278 278 278 278 278 278 278 278 278 279 278 280 283 282 280 278 277 276 277
295 295 295 294 289 287 283 281 280 279 278 278 278 277 277 277 277 277 277 277 277 277 278 278 279 282 281 279 277 276 276 275
293 290 291 290 287 283 281 280 280 279 278 278 278 277 276 276 276 276 277 276 277 277 279 278 279 281 280 278 276 275 274 275
285 284 285 286 282 281 280 279 279 280 279 278 277 277 276 276 275 276 277 276 277 277 277 278 278 280 280 278 276 274 274 273
280 279 279 279 279 279 278 278 279 278 277 276 276 276 276 276 275 275 276 276 275 275 275 276 278 279 278 278 276 274 273 272
278 278 276 277 278 277 277 276 275 275 275 275 275 275 275 275 276 276 276 274 273 273 273 273 274 277 278 277 276 275 272 271
277 276 275 275 277 279 279 275 274 274 273 273 274 275 275 275 275 274 275 273 272 272 271 271 272 275 277 276 276 274 272 271
273 274 274 273 275 274 273 273 272 273 272 272 273 273 274 275 275 274 273 273 272 271 270 270 270 271 272 273 273 274 270 269
272 272 272 271 270 269 271 270 270 271 271 272 273 273 273 273 273 273 274 274 272 271 270 269 268 270 272 271 270 268 267 262
270 270 267 266 266 266 267 269 270 269 270 271 271 271 271 270 271 275 275 276 275 274 271 270 272 274 275 275 274 272 269 260
267 266 264 264 264 266 268 269 271 270 270 270 270 269 269 269 269 268 273 275 275 275 274 272 273 274 274 275 274 273 266 258
262 262 262 262 264 266 268 270 269 269 269 269 268 269 269 268 269 269 269 269 270 274 272 273 273 273 273 273 270 261 258 256
259 260 261 261 261 263 265 267 267 268 267 267 267 268 268 267 267 266 266 265 262 263 268 269 270 271 272 271 259 258 256 254